[[{"header":{"parameterUnit":"m.s-1","parameterCategory":1,"la1":30.2991,"la2":30.254,"lo1":-89.0895,"lo2":-89.0444,"dy":0.0017,"dx":0.0017,"nx":28,"ny":28,"refTime":"2025-07-20T21:00:00:Z","depth":0,"parameterNumber":2,"parameterNumberName":"U-component_of_WINDS"},"data":[0,0,0,0,0,0,0,0,0,0,0,0,0,0,0,0,0,0,0,0,0,0,0,0,0,0,0,0,0,0,0,0,0,0,0,0,0,0,0,0,0,0,0,0,0,0,0,0,0,0,0,0,0,0,0,0,0,0,4.8218,4.8219,0,4.8353,4.8355,4.8356,4.8281,4.8277,4.8273,4.827,4.841,4.8417,4.8424,0,0,0,0,0,0,0,0,0,0,0,0,0,4.7895,4.7901,4.8217,4.8219,4.8221,4.8353,4.8355,4.8356,4.8281,4.8277,4.8272,4.8268,4.8407,4.8416,4.8424,0,0,0,0,0,0,0,0,0,0,0,0,0,4.8033,4.7903,4.8217,4.8199,4.8199,4.8352,4.8355,4.8357,4.8282,4.8277,4.8271,4.8266,4.8404,4.8415,4.8426,4.8605,0,0,4.8459,4.8463,0,0,0,0,0,0,0,0,4.8025,4.8045,4.82,4.8201,4.8201,4.8294,4.8292,4.844,4.8284,4.8251,4.8269,4.8263,4.8376,4.8389,4.8426,4.8612,4.8618,4.846,4.8466,4.8471,4.8474,0,0,0,0,0,0,0,4.8016,4.8039,4.8271,4.8203,4.8203,4.8185,4.8198,4.832,4.8343,4.8253,4.8248,4.8265,4.8375,4.8416,4.8429,4.862,4.8459,4.8469,4.8476,4.848,4.8957,4.8963,0,0,0,0,0,0,4.8007,4.8031,4.8267,4.8275,4.8097,4.8195,4.821,4.827,4.8342,4.8347,4.827,4.8261,4.84,4.8417,4.8434,4.8647,4.8471,4.8481,4.8487,4.8951,4.8959,4.8965,0,0,0,0,0,0,4.8001,4.8029,4.8261,4.8152,4.818,4.8207,4.8274,4.8275,4.8316,4.8354,4.8358,4.8307,4.8397,4.8419,4.8563,4.8651,4.8486,4.8496,4.8944,4.8953,4.8962,4.9075,0,0,0,0,0,0,4.7992,4.8027,4.8095,4.8154,4.8186,4.8388,4.828,4.8282,4.8335,4.8325,4.839,4.8396,4.8394,4.8547,4.8573,4.8663,4.8504,4.8936,4.8948,4.8959,4.9064,4.9087,4.9107,0,0,0,0,0,4.798,4.8122,4.8099,4.8128,4.8272,4.8393,4.8411,4.8406,4.8343,4.8411,4.8435,4.8394,4.8637,4.8562,4.8591,4.8685,4.893,4.8945,4.8958,4.9054,4.9083,4.9107,0,0,0,0,0,0,4.8073,4.813,4.8104,4.8269,4.8327,4.838,4.8466,4.8437,4.8513,4.8501,4.8491,4.8507,4.8656,4.8686,4.8601,4.8862,4.8774,4.8794,4.8837,4.8864,4.8886,4.8875,4.8513,0,0,0,0,0,4.8113,4.8206,4.8251,4.8392,4.8422,4.844,4.8492,4.8483,4.8542,4.8566,4.8601,4.866,4.875,4.8809,4.8894,4.9069,4.9081,4.9148,4.9169,4.9187,4.9204,4.9297,4.9327,4.9011,4.9011,4.9011,0,0,4.8196,4.8238,4.8298,4.8412,4.8455,4.8552,4.8461,4.8567,4.8639,4.8583,4.872,4.8748,4.8814,4.8973,4.9045,4.9002,4.9294,4.9205,4.9219,4.9226,4.9314,4.9344,4.9371,4.902,4.9019,4.9017,0,0,4.8396,4.8438,4.8559,4.8605,4.8672,4.8682,4.8712,4.877,4.8786,4.8924,4.8883,4.8969,4.9124,4.9172,4.9217,4.9436,4.94,4.9464,4.9577,4.9667,4.9692,4.9714,4.979,4.9818,4.9481,4.9481,4.9482,0,4.849,4.8634,4.8626,4.8735,4.8786,4.874,4.8863,4.8908,4.8999,4.9035,4.8986,4.9179,4.922,4.939,4.9443,4.9482,4.9514,4.9455,4.9689,4.9711,4.9732,4.9804,4.9833,4.9489,4.9488,4.9487,4.9486,0,4.8746,4.8846,4.8937,4.9025,4.9087,4.9203,4.9212,4.9275,4.9262,4.9277,4.9418,4.9466,4.9559,4.9599,4.9587,4.9767,4.9738,4.969,4.9601,4.9769,4.9837,4.9865,4.9499,4.9496,4.9494,4.9492,0,0,4.9006,4.9089,4.9122,4.9161,4.9232,4.9309,4.9423,4.9514,4.9567,4.9633,4.9727,4.986,4.9815,4.9866,4.9859,4.9939,5.0107,4.9881,4.9882,4.9919,5.0307,5.034,5.0373,5.0085,5.009,5.0095,5.03,0,4.9208,4.9406,4.9402,4.9586,4.9678,4.9636,4.9735,4.9789,4.9808,4.9889,4.991,5.0003,4.9938,4.9968,5.0046,5.007,5.0184,5.0056,5.0172,5.0176,5.0153,5.0408,5.0445,5.0636,5.0327,5.0331,5.0335,0,4.947,4.9543,4.9736,4.9792,4.9831,4.992,5.0001,5.008,5.0141,5.0149,5.0206,5.0186,5.0302,5.0212,5.037,5.0283,5.033,5.035,5.0357,5.0365,5.0263,5.0421,5.0698,5.0725,5.0377,5.0373,5.037,0,4.9638,4.9785,4.9918,4.9953,5.0023,5.0086,5.0119,5.0174,5.0228,5.0301,5.0336,5.0421,5.0468,5.0535,5.0539,5.0473,5.0698,5.0608,5.0707,5.0707,5.0754,5.075,5.1039,5.0789,5.0789,5.0788,5.0788,0,4.9862,4.9981,4.9994,5.0076,5.0208,5.0203,5.0334,5.036,5.041,5.0496,5.0467,5.0548,5.055,5.0634,5.0638,5.0768,5.079,5.0799,5.0798,5.08,5.0798,5.0829,5.0814,5.0796,5.0794,5.0793,5.0791,0,5.007,5.0084,5.0226,5.0281,5.0297,5.0392,5.0439,5.0517,5.0533,5.0643,5.0668,5.0694,5.0791,5.0802,5.0916,5.0918,5.1074,5.106,5.1053,5.105,5.1146,5.1136,5.1462,5.1504,5.123,5.1232,5.1235,0,5.0211,5.0301,5.0366,5.0421,5.0456,5.0547,5.0601,5.0601,5.066,5.0736,5.0805,5.0899,5.0974,5.1131,5.1159,5.1246,5.1233,5.1341,5.1245,5.1244,5.1231,5.1225,5.1233,5.1359,5.1362,5.1364,5.1366,0,5.0459,5.0461,5.0542,5.0625,5.0692,5.0757,5.0819,5.0866,5.0874,5.0941,5.104,5.1098,5.1213,5.1307,5.1392,5.1425,5.1397,5.1397,5.1423,5.1425,5.1415,5.1419,5.11,5.1388,5.1386,5.1385,5.1383,5.1382,5.0636,5.0714,5.0771,5.0861,5.0908,5.0966,5.1041,5.1067,5.1149,5.1242,5.1238,5.1346,5.1404,5.1516,5.1556,5.164,5.1604,5.1644,5.1653,5.1662,5.1671,5.1405,5.1656,5.1656,5.1655,5.1655,5.1654,0,5.088,5.0915,5.0998,5.1085,5.1156,5.1124,5.1191,5.1253,5.1348,5.1405,5.1479,5.1592,5.1682,5.1719,5.1807,5.1868,5.1857,5.1891,5.1885,5.1893,5.1699,5.1666,5.1898,5.1898,5.1898,5.1898,5.1898,5.1898,5.1015,5.1144,5.1153,5.1305,5.1339,5.1444,5.1485,5.1539,5.1584,5.1711,5.1786,5.1809,5.1858,5.1949,5.2031,5.2039,5.2072,5.2111,5.2114,5.1931,5.1907,5.1883,5.1851,5.2119,5.2119,5.23,5.2302,5.2303]},{"header":{"parameterUnit":"m.s-1","parameterCategory":1,"la1":30.2991,"la2":30.254,"lo1":-89.0895,"lo2":-89.0444,"dy":0.0017,"dx":0.0017,"nx":28,"ny":28,"refTime":"2025-07-20T21:00:00:Z","depth":0,"parameterNumber":3,"parameterNumberName":"V-component_of_WINDS"},"data":[0,0,0,0,0,0,0,0,0,0,0,0,0,0,0,0,0,0,0,0,0,0,0,0,0,0,0,0,0,0,0,0,0,0,0,0,0,0,0,0,0,0,0,0,0,0,0,0,0,0,0,0,0,0,0,0,0,0,1.8283,1.8283,0,1.8288,1.8288,1.8288,1.8255,1.8254,1.8253,1.8252,1.8258,1.8259,1.826,0,0,0,0,0,0,0,0,0,0,0,0,0,1.8244,1.8245,1.8283,1.8283,1.8283,1.8288,1.8288,1.8288,1.8255,1.8254,1.8253,1.8252,1.8257,1.8259,1.826,0,0,0,0,0,0,0,0,0,0,0,0,0,1.8256,1.8245,1.8283,1.8267,1.8266,1.8288,1.8288,1.8288,1.8255,1.8254,1.8252,1.8251,1.8257,1.8258,1.826,1.8297,0,0,1.8265,1.8265,0,0,0,0,0,0,0,0,1.8255,1.8258,1.8269,1.8268,1.8267,1.8269,1.8276,1.8291,1.8256,1.8259,1.8252,1.825,1.8263,1.8264,1.8268,1.8298,1.8298,1.8265,1.8266,1.8266,1.8267,0,0,0,0,0,0,0,1.8255,1.8257,1.8285,1.8269,1.8268,1.8259,1.826,1.8279,1.8269,1.8259,1.8256,1.8257,1.8262,1.8266,1.8268,1.8298,1.8265,1.8266,1.8267,1.8268,1.8358,1.8359,0,0,0,0,0,0,1.8256,1.8257,1.8284,1.8285,1.8257,1.8261,1.8262,1.827,1.8268,1.8267,1.8259,1.8256,1.8264,1.8266,1.8268,1.8311,1.8266,1.8268,1.8269,1.8357,1.8358,1.836,0,0,0,0,0,0,1.8255,1.8259,1.8284,1.827,1.8273,1.8263,1.8273,1.8271,1.8275,1.8268,1.8266,1.8265,1.8263,1.8265,1.829,1.831,1.8268,1.827,1.8355,1.8357,1.8359,1.8398,0,0,0,0,0,0,1.8254,1.8259,1.8273,1.8271,1.8274,1.8307,1.8274,1.8272,1.8278,1.8274,1.8274,1.8273,1.8262,1.8288,1.8292,1.8312,1.8271,1.8353,1.8356,1.8358,1.8394,1.8401,1.8406,0,0,0,0,0,1.8253,1.8284,1.8274,1.8277,1.8291,1.8308,1.831,1.8297,1.828,1.8294,1.8289,1.8273,1.8308,1.8291,1.8295,1.8315,1.8352,1.8355,1.8358,1.8392,1.84,1.8406,0,0,0,0,0,0,1.8289,1.8283,1.8272,1.8303,1.8306,1.8302,1.832,1.8306,1.8314,1.8311,1.8295,1.8295,1.8322,1.8321,1.8303,1.8351,1.8327,1.8331,1.8351,1.8358,1.8364,1.8363,1.8272,0,0,0,0,0,1.8301,1.8315,1.8309,1.8337,1.8339,1.8329,1.8336,1.8326,1.8329,1.833,1.8327,1.8331,1.8342,1.835,1.8361,1.8394,1.8393,1.8411,1.8416,1.8421,1.8425,1.8442,1.8449,1.8371,1.8371,1.8371,0,0,1.8325,1.8323,1.8333,1.8344,1.8345,1.836,1.8331,1.8348,1.8358,1.8333,1.8355,1.8354,1.8356,1.8385,1.8398,1.8385,1.8446,1.8426,1.843,1.8431,1.8446,1.8453,1.846,1.8373,1.8373,1.8372,0,0,1.8376,1.8377,1.84,1.8401,1.8403,1.8396,1.8402,1.84,1.8398,1.842,1.8401,1.8414,1.8434,1.8436,1.844,1.8492,1.8476,1.8496,1.8526,1.8543,1.8549,1.8554,1.8572,1.8578,1.8499,1.8499,1.8499,0,1.8406,1.8427,1.8413,1.8431,1.8436,1.8413,1.8436,1.8438,1.8444,1.8448,1.8434,1.8459,1.8459,1.8487,1.85,1.8504,1.8509,1.8495,1.8549,1.8555,1.8559,1.8576,1.8583,1.8502,1.8501,1.8501,1.8501,0,1.8463,1.8478,1.8496,1.8502,1.8509,1.8529,1.8518,1.8527,1.8516,1.8511,1.8534,1.8533,1.8543,1.8549,1.8539,1.8576,1.8568,1.8552,1.8527,1.8569,1.8584,1.8591,1.8505,1.8504,1.8503,1.8503,0,0,1.8537,1.8534,1.8541,1.8542,1.8543,1.8554,1.8573,1.8582,1.859,1.8594,1.861,1.8627,1.8612,1.8617,1.8607,1.8621,1.8661,1.8603,1.8603,1.8613,1.8701,1.8712,1.872,1.8651,1.8652,1.8653,1.87,0,1.8586,1.8618,1.8606,1.8639,1.8652,1.8631,1.8647,1.8649,1.8645,1.8655,1.865,1.8663,1.8642,1.8644,1.8658,1.8653,1.8678,1.865,1.8664,1.8665,1.8664,1.8728,1.874,1.8785,1.8706,1.8707,1.8708,0,1.8648,1.8654,1.8689,1.8686,1.8691,1.8706,1.8713,1.8723,1.8725,1.872,1.8725,1.8712,1.873,1.8705,1.873,1.8711,1.8716,1.8714,1.8716,1.8716,1.8689,1.8729,1.8799,1.8805,1.8717,1.8716,1.8716,0,1.8697,1.8715,1.8737,1.8739,1.8737,1.8748,1.8747,1.8748,1.8753,1.8759,1.8763,1.8771,1.8776,1.8782,1.8771,1.8754,1.8797,1.8772,1.8793,1.8794,1.8803,1.8802,1.8874,1.8808,1.8808,1.8808,1.8807,0,1.8753,1.8775,1.8759,1.8773,1.8796,1.8782,1.8805,1.8802,1.8803,1.8815,1.8797,1.881,1.8795,1.8806,1.8797,1.8818,1.8821,1.8817,1.8815,1.8818,1.8819,1.8821,1.8817,1.8809,1.8809,1.8809,1.8808,0,1.8812,1.8803,1.8825,1.8821,1.882,1.8838,1.8834,1.8846,1.884,1.8856,1.8859,1.885,1.8862,1.8852,1.8863,1.8857,1.8885,1.8878,1.8884,1.8882,1.8904,1.8902,1.8979,1.8988,1.8917,1.8918,1.8919,0,1.8848,1.8864,1.8861,1.8868,1.8868,1.888,1.8886,1.8872,1.8879,1.8881,1.8893,1.8903,1.8911,1.893,1.8924,1.8933,1.8926,1.8952,1.8927,1.893,1.8925,1.8924,1.8925,1.8957,1.8958,1.8959,1.8959,0,1.8912,1.8906,1.8915,1.8922,1.8929,1.8934,1.8938,1.8945,1.8931,1.8939,1.8951,1.8956,1.8968,1.8978,1.8984,1.8983,1.8969,1.8967,1.8972,1.8976,1.8978,1.8977,1.8897,1.8965,1.8965,1.8964,1.8964,1.8964,1.896,1.8972,1.8972,1.8982,1.8983,1.8987,1.8998,1.8993,1.9003,1.901,1.9002,1.9016,1.9016,1.9024,1.9025,1.9035,1.9024,1.9032,1.9034,1.9036,1.9038,1.8978,1.9036,1.9036,1.9036,1.9036,1.9036,0,1.9022,1.902,1.903,1.9035,1.9043,1.9029,1.9032,1.9039,1.9052,1.9053,1.9061,1.9074,1.9083,1.9078,1.9086,1.9095,1.9089,1.9098,1.9097,1.9097,1.9048,1.9043,1.9103,1.9103,1.9103,1.9103,1.9103,1.9103,1.9055,1.9076,1.907,1.9091,1.9089,1.9102,1.9105,1.9108,1.9109,1.9124,1.9132,1.9129,1.9127,1.9135,1.9143,1.9141,1.9145,1.9156,1.9152,1.9107,1.91,1.9094,1.9088,1.9157,1.9157,1.9199,1.9199,1.92]}]]